Regional Weather Roundup
Issued by NWS

Home | Current Version | Previous Version | Text Only | Print | Product List | Glossary On
Versions: 1 2 3 4 5 6 7 8 9 10 11 12 13 14 15 16 17 18 19 20 21 22 23 24 25 26 27 28 29 30 31 32 33 34 35 36 37 38 39 40 41 42 43 44 45 46 47 48 49 50
406
ASUS43 KLSX 191607
RWRMO

WEATHER SUMMARY FOR MISSOURI
NATIONAL WEATHER SERVICE SPRINGFIELD MO
1000 AM CST SUN FEB 19 2017

NOTE: "FAIR" INDICATES FEW OR NO CLOUDS BELOW 12,000 FEET WITH NO
       SIGNIFICANT WEATHER AND/OR OBSTRUCTIONS TO VISIBILITY.
       CURRENT SKY AND/OR WEATHER CONDITIONS ARE NOT AVAILABLE FOR
       CHILLICOTHE AND FARMINGTON.

MOZ001>031-035>038-043-044-053-054-191700-
...NORTHERN AND WESTERN MISSOURI...

CITY           SKY/WX    TMP DP  RH WIND       PRES   REMARKS
KANSAS CTY INT MOSUNNY   60  53  77 S12       29.97F
KANSAS C DTWN  SUNNY     62  52  69 S8        29.98S
LEE`S SUMMIT   SUNNY     58  52  80 S10       30.00R
ST JOSEPH      MOSUNNY   58  52  80 S7        29.96F
CHILLICOTHE      N/A     58  51  78 VRB5      30.01S
KIRKSVILLE     SUNNY     61  51  70 SW6       30.03R

$$
MOZ066>068-077>081-088>096-101>105-191700-
...SOUTHWEST MISSOURI...

CITY           SKY/WX    TMP DP  RH WIND       PRES   REMARKS
SPRINGFIELD    SUNNY     61  52  72 SE10      30.02R
JOPLIN         SUNNY     63  56  78 S9        29.99S
BRANSON        MOSUNNY   55  52  88 E7        30.05R

$$
MOZ032>034-039>042-045>050-055>058-069>072-191700-
...CENTRAL MISSOURI...

CITY           SKY/WX    TMP DP  RH WIND       PRES   REMARKS
COLUMBIA       SUNNY     58  51  78 S6        30.05R
JEFFERSON CITY SUNNY     53  47  79 E5        30.06R
ROLLA          SUNNY     59  53  80 S7        30.06R
SEDALIA        SUNNY     63  52  67 SE8       30.03S
WHITEMAN AFB   SUNNY     58  58 100 S5        30.00S
WARRENSBURG    MOSUNNY   54  52  94 S5        30.01S
OSAGE BEACH    SUNNY     58  50  75 SE6       30.05S

$$
MOZ051-052-059>065-191700-
...EAST CENTRAL MISSOURI...

CITY           SKY/WX    TMP DP  RH WIND       PRES   REMARKS
ST LOUIS INTL  MOSUNNY   60  50  69 W3        30.07
SPIRIT OF STL  SUNNY     56  52  86 NW8       30.06S
ST CHARLES     SUNNY     50  49  96 VRB3      30.06S

$$
MOZ072>076-082>087-097>100-106>115-191700-
...SOUTH CENTRAL AND SOUTHEAST MISSOURI...

CITY           SKY/WX    TMP DP  RH WIND       PRES   REMARKS
CAPE GIRARDEAU CLOUDY    52  50  93 CALM      30.10S FOG
FARMINGTON     FOG       54  54 100 S3        30.09S VSB 1
POPLAR BLUFF   FOG       50  50 100 CALM      30.10S VSB 1/4
WEST PLAINS    PTSUNNY   55  53  93 SE5       30.09R

$$



USA.gov is the U.S. government's official web portal to all federal, state and local government web resources and services.